map of KADC home
KADC - Airport
Location
City:  Wadena, Minnesota, United States
Name:Wadena Municipal Airport
ICAO:KADC
FAA LID:ADC

Details
Type:Airport (Airfield)
Use:Public/Civil
Latitude:4627'00"N (46.449945)
Longitude:9512'39"W (-95.210831)
Datum:WGS 1984
Elevation:1368 ft (417 m)
Variation:1.67E (WMM2015v2 magnetic declination)
-0.05 annual change
Runways:1
Longest:4007 × 75 ft (1221 × 23 m), paved

Time
Time Zone:UTC-6 (DST-5)
Local Time:

Weather
METAR:KADC 041415Z AUTO 29010G17KT 7SM -SN OVC032 M16/M18 A2981 RMK AO2

Related Locations
Nearby:
Farthest:YWKS: 10728 mi / 17265 km
Wilkins Runway (Casey), Upper Peterson Glacier, AQ

Find:

   beyond  
but within

Other Information
Maps:
NOTAMs:
Links:
Sources:

  
  • flag of United States
  • flag of Minnesota
  

Sectional Chart

Flight Planning
at skyvector.com

Satellite Image

Google Maps Satellite view

 

Copyright © 2004-2019 Karl L. Swartz. All rights reserved.
The Great Circle Mapper name and logo are trademarks of the Great Circle Mapper.
All other trademarks mentioned herein belong to their respective owners.
Please see credits for attibutions and further copyright information.

  Follow gcmap on Facebook Follow gcmap on Twitter GCmap on LinkedIn

hCard Microformat

Geo Microformat